[[{"header":{"parameterUnit":"m.s-1","parameterCategory":2,"la1":30.2991,"la2":30.254,"lo1":-89.0895,"lo2":-89.0444,"dy":0.0017,"dx":0.0017,"nx":28,"ny":28,"refTime":"2024-07-02T21:00:00:Z","depth":"0","parameterNumber":2,"parameterNumberName":"U-component_of_CURRENTS"},"data":[0,0,0,0,0,0,0,0,0,0,0,0,0,0,0,0,0,0,0,0,0,0,0,0,0,0,0,0,0,0,0,0,0,0,0,0,0,0,0,0,0,0,0,0,0,0,0,0,0,0,0,0,0,0,0,0,0,0,0.1079,0.108,0,0.1185,0.1186,0.1187,0.1184,0.1183,0.1181,0.118,0.1202,0.1203,0.1205,0,0,0,0,0,0,0,0,0,0,0,0,0,0.0971,0.0972,0.1079,0.108,0.1082,0.1185,0.1186,0.1188,0.1184,0.1183,0.1181,0.1179,0.1201,0.1203,0.1205,0,0,0,0,0,0,0,0,0,0,0,0,0,0.104,0.0973,0.1079,0.1094,0.1096,0.1185,0.1186,0.1188,0.1185,0.1183,0.1181,0.1179,0.12,0.1203,0.1206,0.1263,0,0,0.1214,0.1215,0,0,0,0,0,0,0,0,0.1036,0.1044,0.109,0.1093,0.1096,0.117,0.1156,0.1209,0.1185,0.1149,0.118,0.1178,0.1186,0.119,0.1213,0.1264,0.1265,0.1214,0.1216,0.1217,0.1218,0,0,0,0,0,0,0,0.1031,0.104,0.112,0.1092,0.1095,0.1129,0.1135,0.1167,0.1175,0.1152,0.1153,0.1168,0.1186,0.1211,0.1213,0.1265,0.1214,0.1217,0.1218,0.1219,0.1444,0.1448,0,0,0,0,0,0,0.1018,0.1035,0.1116,0.1123,0.1062,0.1132,0.1139,0.1147,0.1176,0.118,0.1169,0.1167,0.1207,0.121,0.1214,0.1333,0.1217,0.122,0.1221,0.1439,0.1445,0.1449,0,0,0,0,0,0,0.1016,0.1024,0.1112,0.1083,0.1096,0.1135,0.1145,0.1151,0.1174,0.119,0.1191,0.1187,0.1206,0.121,0.128,0.1331,0.1221,0.1223,0.1434,0.1441,0.1447,0.1539,0,0,0,0,0,0,0.1012,0.1023,0.1034,0.1082,0.1098,0.1172,0.1147,0.1154,0.1187,0.1185,0.1206,0.1206,0.1204,0.1277,0.1283,0.1333,0.1225,0.1429,0.1437,0.1445,0.153,0.1547,0.1562,0,0,0,0,0,0.1008,0.1037,0.1034,0.1044,0.1108,0.1174,0.1186,0.1206,0.119,0.1216,0.1249,0.1206,0.1332,0.1283,0.1289,0.1341,0.1425,0.1435,0.1444,0.1523,0.1544,0.1562,0,0,0,0,0,0,0.1003,0.1041,0.1038,0.1078,0.1122,0.1173,0.1207,0.1214,0.1263,0.1259,0.126,0.1266,0.1341,0.1346,0.1291,0.1436,0.1372,0.1384,0.143,0.145,0.1465,0.1532,0.1228,0,0,0,0,0,0.1005,0.1033,0.1074,0.111,0.113,0.1167,0.1198,0.1211,0.1257,0.1274,0.1294,0.1333,0.1392,0.142,0.1458,0.1542,0.1598,0.1584,0.16,0.1613,0.1678,0.182,0.1855,0.1481,0.1481,0.1481,0,0,0.1015,0.1041,0.1057,0.1111,0.1144,0.1204,0.1181,0.1233,0.1296,0.1271,0.1359,0.1379,0.1426,0.1519,0.1554,0.1526,0.1746,0.1626,0.1636,0.1695,0.1834,0.1871,0.1903,0.1488,0.1487,0.1485,0,0,0.1059,0.1068,0.1108,0.1148,0.1203,0.1237,0.1252,0.1307,0.134,0.1427,0.1435,0.1521,0.1571,0.1653,0.1692,0.1833,0.1817,0.1809,0.1953,0.2089,0.2121,0.215,0.2245,0.2282,0.1827,0.1827,0.1827,0,0.1065,0.1125,0.1134,0.1189,0.1242,0.1253,0.1325,0.1373,0.1448,0.1516,0.1463,0.1644,0.166,0.184,0.1889,0.1872,0.1924,0.1861,0.211,0.214,0.2168,0.2259,0.2298,0.1833,0.1832,0.1832,0.1831,0,0.1144,0.1195,0.1229,0.1301,0.1355,0.1422,0.1482,0.155,0.1578,0.1637,0.1789,0.184,0.1961,0.1969,0.1973,0.2188,0.2149,0.2098,0.2054,0.2212,0.2296,0.2336,0.1841,0.1839,0.1837,0.1836,0,0,0.1167,0.1262,0.1277,0.1343,0.1423,0.1491,0.1601,0.1737,0.1835,0.1905,0.2059,0.2184,0.2206,0.2262,0.2273,0.2403,0.2623,0.2345,0.2349,0.2428,0.2905,0.2822,0.2856,0.2597,0.2605,0.2611,0.2873,0,0.1236,0.1363,0.1389,0.1534,0.1623,0.1673,0.1779,0.1897,0.1977,0.2118,0.2226,0.2345,0.2314,0.2366,0.2506,0.2585,0.2736,0.2557,0.2753,0.2761,0.2659,0.2904,0.285,0.3075,0.2912,0.2918,0.2923,0,0.133,0.1408,0.1547,0.1692,0.1729,0.1802,0.1996,0.2087,0.227,0.2331,0.2488,0.2532,0.276,0.267,0.297,0.2845,0.2921,0.2974,0.2983,0.2919,0.2755,0.29,0.3153,0.3134,0.2983,0.2978,0.2974,0,0.1408,0.154,0.1661,0.1708,0.1848,0.1928,0.2005,0.2168,0.2261,0.2472,0.2549,0.2786,0.2885,0.3061,0.3162,0.3086,0.3449,0.3343,0.3362,0.3352,0.3362,0.334,0.3622,0.3608,0.3607,0.3606,0.3606,0,0.1512,0.1618,0.1702,0.1774,0.1907,0.1991,0.2135,0.2242,0.2397,0.2518,0.2654,0.2787,0.2987,0.3173,0.3271,0.3454,0.355,0.3481,0.3462,0.3385,0.3364,0.3384,0.3321,0.3616,0.3614,0.3612,0.361,0,0.1598,0.1655,0.1795,0.1918,0.1946,0.2047,0.2152,0.225,0.2394,0.2556,0.2624,0.285,0.3077,0.3255,0.353,0.3571,0.3679,0.3784,0.3657,0.362,0.3566,0.3506,0.3588,0.346,0.3882,0.3883,0.3883,0,0.1654,0.1736,0.1855,0.1888,0.193,0.2045,0.2095,0.2238,0.2323,0.2578,0.2656,0.2917,0.3076,0.3447,0.3607,0.3826,0.3702,0.3868,0.3737,0.3655,0.3578,0.335,0.3217,0.3784,0.3783,0.3782,0.3782,0,0.1739,0.1772,0.185,0.1902,0.1954,0.2023,0.2107,0.2171,0.234,0.2484,0.2682,0.2838,0.3171,0.3394,0.3655,0.376,0.3698,0.3857,0.386,0.3642,0.3337,0.3169,0.3472,0.3778,0.3778,0.3778,0.3779,0.3779,0.1755,0.1796,0.1847,0.1904,0.1944,0.1974,0.2021,0.2109,0.2239,0.2431,0.2617,0.2831,0.3206,0.3561,0.3631,0.3774,0.3636,0.3777,0.3751,0.3555,0.3334,0.3599,0.3798,0.3799,0.3799,0.3799,0.38,0,0.175,0.1775,0.1824,0.187,0.1886,0.1925,0.2,0.2043,0.2151,0.2347,0.2523,0.2924,0.3209,0.3471,0.3795,0.3763,0.3517,0.3698,0.3442,0.3339,0.3726,0.3625,0.3689,0.3689,0.3689,0.3689,0.3689,0.3689,0.174,0.1761,0.1785,0.1794,0.1811,0.1833,0.1866,0.1943,0.2075,0.2298,0.2518,0.2721,0.3233,0.3743,0.3897,0.3795,0.35,0.3361,0.3264,0.3646,0.3651,0.3656,0.3554,0.3602,0.3602,0.2762,0.2757,0.2752]},{"header":{"parameterUnit":"m.s-1","parameterCategory":2,"la1":30.2991,"la2":30.254,"lo1":-89.0895,"lo2":-89.0444,"dy":0.0017,"dx":0.0017,"nx":28,"ny":28,"refTime":"2024-07-02T21:00:00:Z","depth":"0","parameterNumber":3,"parameterNumberName":"V-component_of_CURRENTS"},"data":[0,0,0,0,0,0,0,0,0,0,0,0,0,0,0,0,0,0,0,0,0,0,0,0,0,0,0,0,0,0,0,0,0,0,0,0,0,0,0,0,0,0,0,0,0,0,0,0,0,0,0,0,0,0,0,0,0,0,0.0154,0.0155,0,0.0223,0.0224,0.0224,0.0243,0.0244,0.0244,0.0244,0.0195,0.0194,0.0193,0,0,0,0,0,0,0,0,0,0,0,0,0,-0.0006,-0.0003,0.0154,0.0155,0.0156,0.0223,0.0224,0.0224,0.0243,0.0244,0.0244,0.0244,0.0196,0.0194,0.0192,0,0,0,0,0,0,0,0,0,0,0,0,0,0.0059,-0.0002,0.0154,0.0177,0.018,0.0223,0.0224,0.0224,0.0243,0.0244,0.0244,0.0244,0.0196,0.0194,0.0192,0.0179,0,0,0.0186,0.0185,0,0,0,0,0,0,0,0,0.0056,0.0065,0.0173,0.0176,0.0179,0.0229,0.015,0.0205,0.0243,0.0215,0.0244,0.0244,0.0198,0.0196,0.0204,0.0177,0.0175,0.0186,0.0185,0.0184,0.0183,0,0,0,0,0,0,0,0.0051,0.0062,0.0177,0.0174,0.0178,0.017,0.0179,0.016,0.02,0.0217,0.022,0.0235,0.0199,0.0206,0.0203,0.0174,0.0186,0.0184,0.0183,0.0182,0.015,0.015,0,0,0,0,0,0,0.0055,0.0058,0.0175,0.0179,0.0121,0.0173,0.0183,0.0209,0.0203,0.0204,0.0235,0.0236,0.021,0.0205,0.0201,0.0236,0.0184,0.0182,0.0181,0.0149,0.015,0.015,0,0,0,0,0,0,0.0051,0.0065,0.0172,0.0122,0.0136,0.0177,0.0205,0.0211,0.0218,0.0218,0.0216,0.0237,0.021,0.0204,0.0204,0.0232,0.0181,0.0179,0.0149,0.0149,0.015,0.0272,0,0,0,0,0,0,0.0046,0.0063,0.0072,0.0123,0.0139,0.0204,0.0206,0.0212,0.0229,0.0231,0.0219,0.0215,0.0209,0.0207,0.0202,0.0228,0.0178,0.0148,0.0149,0.015,0.0267,0.0276,0.0284,0,0,0,0,0,0.004,0.0064,0.0073,0.0086,0.0155,0.0205,0.0212,0.0237,0.0229,0.024,0.024,0.0215,0.0206,0.0207,0.02,0.0227,0.0148,0.0149,0.015,0.0264,0.0275,0.0284,0,0,0,0,0,0,0.0001,0.0071,0.008,0.0124,0.0162,0.021,0.0225,0.0233,0.0242,0.0238,0.0225,0.0223,0.0229,0.0201,0.0201,0.0214,0.017,0.0169,0.0258,0.0268,0.0277,0.0358,0.0176,0,0,0,0,0,-0.0004,0.0033,0.009,0.0123,0.0143,0.0177,0.0195,0.0216,0.0237,0.0241,0.0237,0.0225,0.0226,0.0227,0.0213,0.0223,0.0222,0.023,0.0239,0.0246,0.0305,0.0322,0.034,0.0152,0.0152,0.0152,0,0,-0.001,0.0033,0.0053,0.0116,0.0146,0.0203,0.0188,0.0225,0.0277,0.0231,0.0277,0.0248,0.0231,0.0254,0.0253,0.0238,0.0289,0.0247,0.0254,0.0311,0.0325,0.0344,0.0361,0.0153,0.0153,0.0153,0,0,0.0018,0.0035,0.0084,0.0122,0.0178,0.0207,0.0217,0.0263,0.0285,0.0319,0.0304,0.0314,0.0292,0.0321,0.0323,0.0364,0.0326,0.0323,0.0448,0.0463,0.048,0.0495,0.0489,0.0503,0.0337,0.0337,0.0338,0,0.001,0.0096,0.0102,0.0165,0.0223,0.0214,0.0296,0.0311,0.0351,0.0402,0.0344,0.0384,0.0346,0.0432,0.0444,0.0393,0.038,0.0417,0.048,0.0495,0.0509,0.0499,0.0513,0.0343,0.0343,0.0342,0.0342,0,0.0091,0.0159,0.019,0.0281,0.0323,0.0389,0.0429,0.0466,0.0473,0.0507,0.057,0.053,0.0576,0.0536,0.0506,0.0589,0.0538,0.0483,0.0469,0.0536,0.0519,0.0532,0.0352,0.035,0.0348,0.0347,0,0,0.0127,0.0232,0.025,0.0341,0.0405,0.0474,0.0543,0.0654,0.0744,0.0727,0.0854,0.0827,0.0809,0.0812,0.076,0.0767,0.0816,0.0676,0.0673,0.0697,0.0837,0.0729,0.073,0.0765,0.0768,0.0771,0.0777,0,0.0216,0.0371,0.0391,0.0556,0.0666,0.0688,0.0772,0.085,0.0887,0.0983,0.0964,0.1023,0.091,0.093,0.0927,0.0855,0.0859,0.082,0.0747,0.0746,0.0664,0.0746,0.0654,0.0646,0.0788,0.079,0.0792,0,0.0348,0.0439,0.0612,0.0781,0.0826,0.0898,0.108,0.1145,0.1241,0.1268,0.1321,0.1287,0.1328,0.1186,0.1149,0.1124,0.1011,0.0928,0.0924,0.0809,0.0663,0.0604,0.0662,0.0449,0.081,0.0809,0.0808,0,0.0485,0.0631,0.0788,0.0841,0.0985,0.1075,0.1143,0.1252,0.1338,0.1451,0.1513,0.1542,0.1552,0.1455,0.1274,0.1221,0.1198,0.1096,0.09,0.0889,0.0796,0.0771,0.0674,0.1078,0.1078,0.1077,0.1077,0,0.066,0.08,0.0863,0.0965,0.114,0.1201,0.1381,0.145,0.1558,0.1675,0.1661,0.1742,0.1614,0.1565,0.1384,0.1198,0.1286,0.097,0.0907,0.0826,0.0805,0.06,0.0484,0.1078,0.1078,0.1078,0.1078,0,0.0851,0.0892,0.1071,0.1189,0.1224,0.1356,0.148,0.1596,0.1684,0.1833,0.1872,0.1915,0.1846,0.1684,0.1529,0.1331,0.1013,0.106,0.0965,0.089,0.0481,0.0374,0.0261,0.0132,0.0869,0.0867,0.0865,0,0.0977,0.1084,0.1196,0.1248,0.1305,0.1454,0.154,0.1653,0.1754,0.1927,0.2002,0.2008,0.2013,0.1765,0.142,0.1127,0.0928,0.0845,0.0727,0.0493,0.0328,0.0267,0.0162,0.0638,0.0634,0.0631,0.0629,0,0.1186,0.12,0.1305,0.1372,0.1462,0.1586,0.1708,0.1813,0.1948,0.207,0.2216,0.2248,0.1995,0.1678,0.1265,0.1034,0.0655,0.0771,0.0572,0.02,0.0091,-0.0078,0.0582,0.0602,0.0605,0.0607,0.0608,0.0609,0.128,0.1358,0.141,0.1486,0.1569,0.1681,0.1805,0.1931,0.2106,0.2291,0.2341,0.2402,0.1947,0.1363,0.1012,0.0348,0.0402,0.0149,0.006,0.0037,-0.014,0.0454,0.0364,0.0365,0.0366,0.0367,0.0368,0,0.134,0.1396,0.1489,0.157,0.1641,0.1684,0.1876,0.2004,0.2194,0.2356,0.2481,0.2308,0.1681,0.1096,0.0211,-0.0251,-0.0415,-0.0471,-0.0573,-0.0634,-0.0069,-0.0135,-0.0391,-0.0391,-0.039,-0.039,-0.039,-0.039,0.1365,0.1444,0.1484,0.1587,0.1638,0.1789,0.1905,0.2107,0.2267,0.2464,0.2518,0.2559,0.2188,0.0585,-0.0516,-0.0785,-0.1084,-0.1174,-0.1274,-0.0906,-0.0855,-0.0806,-0.0894,-0.1304,-0.1305,-0.1824,-0.183,-0.1834]}],[{"header":{"parameterUnit":"m.s-1","parameterCategory":2,"la1":30.2991,"la2":30.254,"lo1":-89.0895,"lo2":-89.0444,"dy":0.0017,"dx":0.0017,"nx":28,"ny":28,"refTime":"2024-07-02T21:00:00:Z","depth":"2","parameterNumber":2,"parameterNumberName":"U-component_of_CURRENTS"},"data":[0,0,0,0,0,0,0,0,0,0,0,0,0,0,0,0,0,0,0,0,0,0,0,0,0,0,0,0,0,0,0,0,0,0,0,0,0,0,0,0,0,0,0,0,0,0,0,0,0,0,0,0,0,0,0,0,0,0,0.0979,0.098,0,0.1037,0.1037,0.1038,0.1013,0.1012,0.1011,0.101,0.0997,0.0998,0.0998,0,0,0,0,0,0,0,0,0,0,0,0,0,0.0889,0.089,0.0979,0.098,0.0981,0.1037,0.1037,0.1038,0.1013,0.1012,0.1011,0.1009,0.0997,0.0998,0.0998,0,0,0,0,0,0,0,0,0,0,0,0,0,0.0932,0.0891,0.0979,0.0979,0.098,0.1037,0.1037,0.1038,0.1013,0.1012,0.101,0.1009,0.0997,0.0998,0.0999,0.1034,0,0,0.1001,0.1002,0,0,0,0,0,0,0,0,0.0929,0.0934,0.0978,0.0979,0.098,0.102,0.1001,0.1035,0.1014,0.0996,0.101,0.1008,0.1002,0.1003,0.1012,0.1033,0.1033,0.1001,0.1002,0.1002,0.1003,0,0,0,0,0,0,0,0.0926,0.0932,0.0997,0.0979,0.0981,0.0991,0.0994,0.1008,0.1002,0.0997,0.0997,0.1011,0.1002,0.1011,0.1011,0.1033,0.1001,0.1002,0.1003,0.1003,0.1139,0.1142,0,0,0,0,0,0,0.0928,0.0929,0.0996,0.1,0.0955,0.0994,0.0998,0.1005,0.1003,0.1004,0.1012,0.101,0.101,0.101,0.101,0.1114,0.1002,0.1003,0.1004,0.1136,0.114,0.1143,0,0,0,0,0,0,0.0925,0.0933,0.0993,0.0969,0.0978,0.0997,0.1006,0.1007,0.1019,0.1016,0.1014,0.1023,0.1009,0.1009,0.0996,0.1111,0.1004,0.1004,0.1133,0.1137,0.1142,0.1282,0,0,0,0,0,0,0.0922,0.0931,0.0946,0.0969,0.098,0.1039,0.1008,0.101,0.1032,0.1029,0.1025,0.1022,0.1008,0.0995,0.0997,0.111,0.1005,0.1129,0.1135,0.114,0.1274,0.1291,0.1306,0,0,0,0,0,0.0919,0.0949,0.0946,0.0955,0.0996,0.1042,0.1048,0.1053,0.1034,0.1054,0.1019,0.1022,0.1036,0.0995,0.0998,0.1115,0.1126,0.1133,0.114,0.1266,0.1287,0.1305,0,0,0,0,0,0,0.0922,0.0951,0.0947,0.0985,0.1015,0.1039,0.1067,0.1063,0.1056,0.1048,0.1021,0.1016,0.1077,0.1054,0.101,0.1172,0.1101,0.1108,0.1196,0.1216,0.1232,0.126,0.1006,0,0,0,0,0,0.093,0.0956,0.0984,0.1017,0.1034,0.105,0.1071,0.1076,0.1074,0.1071,0.1068,0.1074,0.1114,0.1119,0.1146,0.1196,0.1193,0.1285,0.1302,0.1315,0.1341,0.1424,0.145,0.1166,0.1166,0.1166,0,0,0.0942,0.0963,0.0978,0.102,0.1042,0.1089,0.1058,0.1102,0.1151,0.1072,0.1125,0.1131,0.1138,0.1214,0.1243,0.12,0.1387,0.1324,0.1336,0.1355,0.1434,0.1462,0.1486,0.1171,0.117,0.1169,0,0,0.0985,0.0997,0.1034,0.1064,0.1109,0.1128,0.1142,0.1176,0.1201,0.1232,0.1225,0.1265,0.1294,0.1342,0.1364,0.1478,0.1478,0.1518,0.1616,0.1696,0.1721,0.1742,0.1741,0.1761,0.1517,0.1517,0.1518,0,0.0996,0.1049,0.1055,0.1102,0.1144,0.1148,0.1207,0.1243,0.127,0.1305,0.1263,0.137,0.1369,0.1495,0.1542,0.1524,0.1537,0.154,0.1719,0.174,0.176,0.1754,0.1774,0.1525,0.1524,0.1523,0.1523,0,0.1067,0.1113,0.1144,0.1203,0.1245,0.1302,0.135,0.1386,0.1403,0.1446,0.156,0.1559,0.1619,0.1662,0.163,0.1807,0.1759,0.1737,0.167,0.1797,0.1781,0.18,0.1536,0.1533,0.1531,0.1529,0,0,0.1089,0.1175,0.1188,0.1228,0.1307,0.1344,0.1432,0.1523,0.1572,0.164,0.1722,0.1834,0.1848,0.1875,0.1886,0.1957,0.2088,0.1916,0.1917,0.1914,0.2226,0.2133,0.2142,0.2111,0.2116,0.212,0.2146,0,0.1149,0.1252,0.1283,0.1384,0.1448,0.1475,0.1554,0.1632,0.1679,0.175,0.1834,0.1911,0.1934,0.1954,0.2056,0.205,0.2152,0.208,0.2104,0.2103,0.2007,0.2168,0.2052,0.2063,0.2164,0.2167,0.2169,0,0.1226,0.1284,0.1394,0.1481,0.1508,0.1558,0.1657,0.1727,0.1836,0.1879,0.1994,0.202,0.2145,0.2128,0.2275,0.2228,0.2277,0.2283,0.2284,0.2169,0.2049,0.196,0.2093,0.22,0.2198,0.2196,0.2193,0,0.1263,0.1367,0.1455,0.1489,0.1583,0.1622,0.1671,0.1772,0.1829,0.1954,0.199,0.2142,0.2186,0.2293,0.2316,0.2306,0.2437,0.2401,0.2386,0.2374,0.2266,0.2237,0.2588,0.2588,0.2588,0.2588,0.2588,0,0.1327,0.1381,0.1467,0.1511,0.1579,0.1653,0.1726,0.1786,0.1885,0.195,0.2068,0.2126,0.2244,0.2306,0.2349,0.2406,0.2477,0.2446,0.2413,0.2304,0.228,0.2389,0.2366,0.2589,0.2588,0.2588,0.2588,0,0.1305,0.1394,0.1465,0.1565,0.1597,0.1629,0.1709,0.1746,0.1875,0.1946,0.1984,0.2125,0.2205,0.2291,0.2401,0.2422,0.2472,0.2502,0.2321,0.2269,0.234,0.2324,0.2469,0.2467,0.2465,0.2463,0.2462,0,0.129,0.1345,0.1453,0.1468,0.149,0.1556,0.1591,0.1725,0.1762,0.1925,0.1943,0.2069,0.2142,0.2258,0.2315,0.2381,0.246,0.2309,0.2301,0.2394,0.2347,0.2333,0.232,0.2187,0.2184,0.2181,0.2179,0,0.1219,0.1264,0.1292,0.1368,0.1405,0.1436,0.15,0.1543,0.1691,0.1767,0.1859,0.1929,0.2083,0.211,0.2217,0.2234,0.2268,0.2251,0.2451,0.2226,0.213,0.2081,0.2078,0.2153,0.2156,0.2158,0.2159,0.216,0.1118,0.1105,0.1188,0.1231,0.1287,0.1331,0.1333,0.1407,0.1488,0.1613,0.1702,0.1805,0.1899,0.2,0.1999,0.2031,0.2162,0.2118,0.2127,0.2139,0.2094,0.2,0.1985,0.1987,0.1988,0.1989,0.199,0,0.0999,0.1027,0.1052,0.1121,0.1148,0.1234,0.1281,0.1283,0.1347,0.1487,0.1571,0.1521,0.1633,0.1755,0.1795,0.1824,0.1811,0.176,0.1757,0.1784,0.1808,0.1746,0.1545,0.1543,0.1541,0.1539,0,0,0.0948,0.095,0.099,0.1021,0.1063,0.111,0.1136,0.113,0.1212,0.1252,0.1335,0.1524,0.168,0.1552,0.1585,0.1586,0.1653,0.1531,0.1897,0.1918,0.1939,0.2035,0.1972,0,0,0,0,0]},{"header":{"parameterUnit":"m.s-1","parameterCategory":2,"la1":30.2991,"la2":30.254,"lo1":-89.0895,"lo2":-89.0444,"dy":0.0017,"dx":0.0017,"nx":28,"ny":28,"refTime":"2024-07-02T21:00:00:Z","depth":"2","parameterNumber":3,"parameterNumberName":"V-component_of_CURRENTS"},"data":[0,0,0,0,0,0,0,0,0,0,0,0,0,0,0,0,0,0,0,0,0,0,0,0,0,0,0,0,0,0,0,0,0,0,0,0,0,0,0,0,0,0,0,0,0,0,0,0,0,0,0,0,0,0,0,0,0,0,-0.016,-0.0159,0,-0.0128,-0.0128,-0.0128,-0.0126,-0.0126,-0.0126,-0.0126,-0.0203,-0.0205,-0.0207,0,0,0,0,0,0,0,0,0,0,0,0,0,-0.0246,-0.0244,-0.016,-0.0159,-0.0158,-0.0128,-0.0128,-0.0128,-0.0126,-0.0126,-0.0126,-0.0126,-0.0202,-0.0204,-0.0207,0,0,0,0,0,0,0,0,0,0,0,0,0,-0.0215,-0.0244,-0.016,-0.015,-0.0148,-0.0128,-0.0128,-0.0128,-0.0126,-0.0126,-0.0126,-0.0126,-0.0201,-0.0204,-0.0207,-0.0229,0,0,-0.0217,-0.0218,0,0,0,0,0,0,0,0,-0.0217,-0.0213,-0.0152,-0.015,-0.0149,-0.0126,-0.0186,-0.0166,-0.0126,-0.014,-0.0126,-0.0126,-0.0184,-0.0189,-0.0188,-0.0233,-0.0236,-0.0217,-0.0219,-0.0221,-0.0221,0,0,0,0,0,0,0,-0.0219,-0.0214,-0.0152,-0.0151,-0.0149,-0.0156,-0.0152,-0.0182,-0.0169,-0.0138,-0.0137,-0.0126,-0.0185,-0.0185,-0.019,-0.0237,-0.0217,-0.022,-0.0222,-0.0223,-0.0288,-0.0288,0,0,0,0,0,0,-0.0211,-0.0216,-0.0153,-0.0151,-0.0178,-0.0154,-0.0149,-0.0138,-0.0166,-0.0168,-0.0126,-0.0126,-0.018,-0.0187,-0.0193,-0.019,-0.0221,-0.0224,-0.0225,-0.0288,-0.0288,-0.0288,0,0,0,0,0,0,-0.0213,-0.0206,-0.0154,-0.0179,-0.0172,-0.0152,-0.0139,-0.0137,-0.0134,-0.0154,-0.0159,-0.0124,-0.018,-0.0189,-0.0265,-0.0194,-0.0225,-0.0228,-0.0289,-0.0288,-0.0288,-0.0204,0,0,0,0,0,0,-0.0216,-0.0207,-0.0197,-0.0178,-0.017,-0.0134,-0.0139,-0.0136,-0.0125,-0.0125,-0.0155,-0.0162,-0.0181,-0.026,-0.0268,-0.0199,-0.023,-0.0289,-0.0288,-0.0288,-0.0207,-0.0201,-0.0196,0,0,0,0,0,-0.0219,-0.0198,-0.0197,-0.0189,-0.0157,-0.0133,-0.013,-0.0119,-0.0125,-0.0119,-0.0181,-0.0161,-0.026,-0.0266,-0.0274,-0.0203,-0.0289,-0.0289,-0.0288,-0.021,-0.0202,-0.0196,0,0,0,0,0,0,-0.0227,-0.0194,-0.0194,-0.0163,-0.0148,-0.013,-0.0114,-0.0118,-0.0156,-0.016,-0.0201,-0.0214,-0.0238,-0.0257,-0.0262,-0.0223,-0.0253,-0.0254,-0.019,-0.0183,-0.0177,-0.0178,-0.0233,0,0,0,0,0,-0.0225,-0.0203,-0.0179,-0.0156,-0.0142,-0.0133,-0.0123,-0.0114,-0.0138,-0.0151,-0.0179,-0.021,-0.0241,-0.0248,-0.0279,-0.0284,-0.0325,-0.0233,-0.0228,-0.0222,-0.0231,-0.0254,-0.0251,-0.0287,-0.0287,-0.0287,0,0,-0.0223,-0.02,-0.0189,-0.0157,-0.0141,-0.0115,-0.0127,-0.0098,-0.0081,-0.0158,-0.0162,-0.0206,-0.0248,-0.025,-0.0255,-0.0256,-0.0238,-0.0222,-0.0217,-0.0229,-0.0254,-0.025,-0.0247,-0.0286,-0.0286,-0.0286,0,0,-0.0197,-0.0185,-0.0153,-0.014,-0.0106,-0.0096,-0.0088,-0.0071,-0.0065,-0.0095,-0.0132,-0.0174,-0.0202,-0.0217,-0.0231,-0.0223,-0.0221,-0.0183,-0.0135,-0.0156,-0.0154,-0.0151,-0.0211,-0.0215,-0.0161,-0.016,-0.016,0,-0.0194,-0.015,-0.0143,-0.0112,-0.009,-0.0087,-0.0051,-0.0045,-0.006,-0.0065,-0.0087,-0.015,-0.0189,-0.0193,-0.0183,-0.0204,-0.0227,-0.0151,-0.0147,-0.0146,-0.0145,-0.0207,-0.0212,-0.0156,-0.0157,-0.0157,-0.0158,0,-0.015,-0.0113,-0.0091,-0.0051,-0.0037,0.0,0.0014,0.0005,-0.0,0.0011,-0.0008,-0.0079,-0.0108,-0.01,-0.0146,-0.0125,-0.0148,-0.015,-0.0159,-0.0136,-0.0204,-0.0211,-0.015,-0.0152,-0.0153,-0.0154,0,0,-0.013,-0.0068,-0.006,-0.0042,0.0004,0.0012,0.0031,0.0053,0.004,0.005,0.004,0.0007,-0.0003,-0.0025,-0.005,-0.0071,-0.01,-0.0092,-0.0095,-0.0143,-0.0162,-0.0235,-0.025,-0.0077,-0.0077,-0.0077,-0.0216,0,-0.0087,-0.002,-0.0001,0.0045,0.0083,0.0069,0.0079,0.0086,0.0073,0.0056,0.0047,0.0023,0.0033,0.0002,0.0003,-0.0117,-0.0111,-0.0064,-0.0186,-0.0191,-0.025,-0.0258,-0.0197,-0.0319,-0.0223,-0.0224,-0.0225,0,-0.0035,0.0,0.007,0.0087,0.0098,0.0113,0.0088,0.0106,0.0095,0.0081,0.0091,0.0065,0.0029,0.0031,-0.0069,-0.0031,-0.0068,-0.0139,-0.0145,-0.0249,-0.0276,-0.0325,-0.0336,-0.0238,-0.0237,-0.0236,-0.0235,0,-0.002,0.0044,0.0099,0.0112,0.0135,0.013,0.0137,0.0123,0.0139,0.0107,0.0091,0.0065,0.0027,-0.0023,-0.0144,-0.0104,-0.028,-0.0248,-0.0332,-0.0339,-0.0336,-0.0343,-0.0266,-0.0266,-0.0266,-0.0266,-0.0265,0,0.0023,0.0027,0.0106,0.012,0.0132,0.016,0.0171,0.013,0.0151,0.0174,0.0144,0.0121,0.0018,-0.0083,-0.016,-0.0301,-0.0277,-0.0346,-0.0377,-0.0309,-0.0311,-0.0274,-0.0273,-0.0271,-0.027,-0.0269,-0.0268,0,-0.0036,0.0044,0.008,0.0135,0.0146,0.0148,0.0198,0.0201,0.0216,0.0227,0.0224,0.015,0.0002,-0.0125,-0.029,-0.0344,-0.0485,-0.0508,-0.0453,-0.0475,-0.0521,-0.0514,-0.0635,-0.0638,-0.0641,-0.0644,-0.0646,0,-0.0074,-0.0034,0.0064,0.0094,0.0106,0.0147,0.0173,0.0221,0.0245,0.0245,0.0242,0.0119,0.0048,-0.0247,-0.0409,-0.0592,-0.055,-0.0652,-0.056,-0.054,-0.0558,-0.0546,-0.0535,-0.0528,-0.0529,-0.053,-0.0531,0,-0.017,-0.011,-0.0079,0.0043,0.0094,0.0115,0.0168,0.022,0.0287,0.0281,0.025,0.0191,-0.0029,-0.0218,-0.0474,-0.0575,-0.064,-0.0677,-0.0671,-0.0449,-0.0451,-0.0465,-0.0456,-0.0538,-0.0537,-0.0537,-0.0536,-0.0536,-0.0244,-0.0244,-0.0101,-0.0026,0.0048,0.0105,0.013,0.0202,0.0257,0.0331,0.0272,0.0254,0.0038,-0.0247,-0.0477,-0.0685,-0.0673,-0.071,-0.0701,-0.0693,-0.066,-0.0668,-0.0792,-0.0793,-0.0793,-0.0794,-0.0794,0,-0.0289,-0.0251,-0.0179,-0.0059,0.0015,0.0076,0.014,0.0195,0.0264,0.038,0.0386,0.0249,0.0052,-0.015,-0.045,-0.0686,-0.0644,-0.0746,-0.0616,-0.061,-0.0604,-0.056,-0.0669,-0.0669,-0.0669,-0.0669,0,0,-0.0291,-0.0238,-0.0189,-0.0065,0.001,0.0103,0.0152,0.0204,0.0307,0.0437,0.0512,0.0507,0.0207,0.0016,-0.0301,-0.046,-0.0471,-0.0494,-0.0574,-0.0379,-0.0369,-0.0573,-0.05,0,0,0,0,0]}],[{"header":{"parameterUnit":"m.s-1","parameterCategory":2,"la1":30.2991,"la2":30.254,"lo1":-89.0895,"lo2":-89.0444,"dy":0.0017,"dx":0.0017,"nx":28,"ny":28,"refTime":"2024-07-02T21:00:00:Z","depth":"4","parameterNumber":2,"parameterNumberName":"U-component_of_CURRENTS"},"data":[0,0,0,0,0,0,0,0,0,0,0,0,0,0,0,0,0,0,0,0,0,0,0,0,0,0,0,0,0,0,0,0,0,0,0,0,0,0,0,0,0,0,0,0,0,0,0,0,0,0,0,0,0,0,0,0,0,0,0.0559,0.0559,0,0.0567,0.0567,0.0567,0.0582,0.0582,0.0582,0.0583,0.0593,0.0593,0.0593,0,0,0,0,0,0,0,0,0,0,0,0,0,0.051,0.0511,0.0559,0.0559,0.0559,0.0567,0.0567,0.0567,0.0582,0.0582,0.0583,0.0583,0.0593,0.0593,0.0593,0,0,0,0,0,0,0,0,0,0,0,0,0,0.0525,0.0512,0.0559,0.0568,0.0569,0.0567,0.0567,0.0567,0.0582,0.0582,0.0583,0.0583,0.0593,0.0593,0.0593,0.0581,0,0,0.0592,0.0592,0,0,0,0,0,0,0,0,0.0525,0.0527,0.0566,0.0567,0.0568,0.0575,0.0554,0.0572,0.0581,0.0576,0.0583,0.0583,0.0587,0.0587,0.0586,0.0582,0.0582,0.0592,0.0592,0.0592,0.0592,0,0,0,0,0,0,0,0.0524,0.0527,0.0561,0.0567,0.0568,0.0556,0.0559,0.0557,0.0578,0.0576,0.0578,0.058,0.0587,0.0587,0.0587,0.0582,0.0592,0.0592,0.0592,0.0592,0.0616,0.0616,0,0,0,0,0,0,0.0526,0.0526,0.0561,0.0562,0.0548,0.0557,0.056,0.0571,0.0578,0.0579,0.0579,0.058,0.0586,0.0587,0.0587,0.0619,0.0592,0.0592,0.0592,0.0615,0.0616,0.0616,0,0,0,0,0,0,0.0525,0.053,0.0561,0.0544,0.0547,0.0557,0.057,0.0571,0.0585,0.058,0.0582,0.0593,0.0587,0.0587,0.0612,0.0618,0.0592,0.0592,0.0614,0.0615,0.0616,0.0655,0,0,0,0,0,0,0.0524,0.0529,0.0544,0.0544,0.0548,0.0571,0.0569,0.0571,0.0585,0.0587,0.0592,0.0593,0.0587,0.0612,0.0612,0.0618,0.0592,0.0613,0.0615,0.0616,0.0653,0.0657,0.0661,0,0,0,0,0,0.0522,0.0542,0.0545,0.055,0.0567,0.0571,0.0572,0.058,0.0585,0.0594,0.0608,0.0593,0.0619,0.0613,0.0612,0.0618,0.0613,0.0614,0.0616,0.0651,0.0656,0.0661,0,0,0,0,0,0,0.0529,0.0545,0.0549,0.0573,0.0576,0.0574,0.0588,0.0587,0.0604,0.0615,0.0608,0.061,0.0631,0.0622,0.0615,0.0629,0.061,0.0612,0.0637,0.0642,0.0646,0.0651,0.0592,0,0,0,0,0,0.0537,0.0558,0.0562,0.0582,0.0588,0.0589,0.0594,0.0599,0.061,0.0618,0.0621,0.0627,0.0633,0.0638,0.0641,0.0651,0.0645,0.0653,0.0657,0.066,0.0664,0.0659,0.0663,0.0622,0.0622,0.0621,0,0,0.0545,0.0557,0.0569,0.0585,0.0592,0.0601,0.0594,0.0612,0.0621,0.0616,0.064,0.0644,0.064,0.0656,0.0663,0.0652,0.0672,0.0662,0.0665,0.0667,0.0661,0.0665,0.0668,0.0623,0.0622,0.0622,0,0,0.0568,0.0584,0.0607,0.0613,0.0628,0.0624,0.0631,0.0638,0.0647,0.0667,0.0667,0.068,0.0687,0.0685,0.0684,0.071,0.0696,0.0711,0.0733,0.0728,0.0731,0.0734,0.0746,0.075,0.071,0.071,0.071,0,0.058,0.0604,0.0612,0.0631,0.0638,0.0636,0.0651,0.0656,0.067,0.0679,0.0683,0.07,0.0697,0.0708,0.0723,0.0718,0.0723,0.0715,0.0733,0.0736,0.0738,0.0749,0.0753,0.0712,0.0712,0.0712,0.0711,0,0.0608,0.0632,0.0646,0.0667,0.0674,0.0689,0.0691,0.0704,0.0712,0.0714,0.0736,0.0737,0.0748,0.0744,0.0746,0.0758,0.0761,0.0741,0.072,0.0744,0.0755,0.0758,0.0715,0.0714,0.0714,0.0713,0,0,0.0623,0.066,0.0666,0.0676,0.0695,0.0698,0.072,0.0729,0.0746,0.0756,0.0776,0.0783,0.079,0.079,0.0787,0.0781,0.0806,0.0776,0.0775,0.0789,0.0817,0.0848,0.0854,0.0793,0.0793,0.0794,0.0824,0,0.0642,0.0678,0.0693,0.0717,0.0727,0.0736,0.075,0.0762,0.0777,0.0797,0.0795,0.0819,0.0805,0.0825,0.0817,0.0812,0.0813,0.0801,0.0792,0.0792,0.0816,0.0857,0.0795,0.0826,0.0827,0.0827,0.0827,0,0.0656,0.0677,0.0709,0.0732,0.074,0.0757,0.078,0.0795,0.082,0.084,0.086,0.0869,0.0883,0.0862,0.0859,0.0858,0.0848,0.0832,0.0833,0.0848,0.0828,0.0793,0.0832,0.0832,0.0831,0.0831,0.0831,0,0.0636,0.0682,0.0706,0.0715,0.0744,0.0766,0.0784,0.0811,0.0827,0.0879,0.0905,0.0917,0.094,0.0918,0.0917,0.0892,0.0912,0.0865,0.0879,0.0881,0.0824,0.0821,0.0858,0.0858,0.0858,0.0858,0.0858,0,0.0631,0.065,0.0704,0.0711,0.0737,0.0766,0.08,0.0824,0.0867,0.0896,0.0932,0.0961,0.0957,0.0973,0.0943,0.0945,0.0937,0.09,0.0894,0.0843,0.0841,0.0827,0.0823,0.0859,0.0859,0.0858,0.0858,0,0.0601,0.0637,0.0659,0.0707,0.0725,0.0744,0.08,0.0824,0.0878,0.0923,0.0948,0.1004,0.1048,0.1046,0.1034,0.0994,0.0977,0.0976,0.0958,0.0949,0.0937,0.0934,0.0978,0.0979,0.098,0.0981,0.0982,0,0.0585,0.0596,0.0649,0.0665,0.0693,0.0734,0.0761,0.0819,0.0852,0.0943,0.0962,0.1043,0.1079,0.1087,0.1087,0.1069,0.1045,0.1031,0.0947,0.096,0.095,0.0946,0.0942,0.0984,0.0984,0.0985,0.0985,0,0.0546,0.0575,0.06,0.0638,0.0673,0.0701,0.0754,0.0769,0.0848,0.0907,0.0974,0.1014,0.108,0.1092,0.1119,0.1083,0.1033,0.1042,0.1037,0.0958,0.0968,0.0956,0.0951,0.0989,0.0988,0.0988,0.0988,0,0.0519,0.0533,0.0576,0.0606,0.0647,0.0666,0.069,0.075,0.0788,0.0896,0.0923,0.101,0.108,0.1103,0.1109,0.1115,0.1071,0.1002,0.0998,0.0994,0.0988,0.1002,0.1044,0,0,0,0,0,0.0482,0.0508,0.0538,0.057,0.0614,0.0634,0.0689,0.072,0.0801,0.0838,0.088,0.0946,0.1006,0.1045,0.105,0.11,0.106,0.1101,0.0975,0.1012,0.1007,0.1,0,0,0,0,0,0,0.0463,0.0499,0.0527,0.0545,0.056,0.0598,0.0626,0.0674,0.07,0.0789,0.0826,0.0905,0.0968,0.1001,0.1038,0.105,0.0956,0.1158,0.1156,0.1015,0.101,0.1007,0.0998,0,0,0,0,0]},{"header":{"parameterUnit":"m.s-1","parameterCategory":2,"la1":30.2991,"la2":30.254,"lo1":-89.0895,"lo2":-89.0444,"dy":0.0017,"dx":0.0017,"nx":28,"ny":28,"refTime":"2024-07-02T21:00:00:Z","depth":"4","parameterNumber":3,"parameterNumberName":"V-component_of_CURRENTS"},"data":[0,0,0,0,0,0,0,0,0,0,0,0,0,0,0,0,0,0,0,0,0,0,0,0,0,0,0,0,0,0,0,0,0,0,0,0,0,0,0,0,0,0,0,0,0,0,0,0,0,0,0,0,0,0,0,0,0,0,-0.0307,-0.0307,0,-0.0355,-0.0355,-0.0356,-0.0409,-0.0409,-0.041,-0.041,-0.0496,-0.0497,-0.0499,0,0,0,0,0,0,0,0,0,0,0,0,0,-0.023,-0.0232,-0.0307,-0.0307,-0.0307,-0.0355,-0.0355,-0.0356,-0.0408,-0.0409,-0.041,-0.041,-0.0495,-0.0497,-0.0499,0,0,0,0,0,0,0,0,0,0,0,0,0,-0.0272,-0.0232,-0.0307,-0.0337,-0.034,-0.0354,-0.0356,-0.0357,-0.0408,-0.0409,-0.041,-0.0411,-0.0494,-0.0497,-0.05,-0.0501,0,0,-0.0508,-0.0509,0,0,0,0,0,0,0,0,-0.0269,-0.0275,-0.0332,-0.0335,-0.0338,-0.0374,-0.036,-0.0406,-0.0408,-0.0385,-0.041,-0.0411,-0.0456,-0.0462,-0.0473,-0.0505,-0.0509,-0.0508,-0.051,-0.0511,-0.0512,0,0,0,0,0,0,0,-0.0267,-0.0273,-0.0329,-0.0332,-0.0336,-0.0338,-0.0345,-0.0369,-0.0419,-0.0387,-0.0391,-0.0391,-0.0459,-0.047,-0.0475,-0.051,-0.0508,-0.051,-0.0512,-0.0513,-0.0588,-0.0588,0,0,0,0,0,0,-0.0256,-0.027,-0.0327,-0.033,-0.0302,-0.0338,-0.0347,-0.0364,-0.0418,-0.0426,-0.0391,-0.0393,-0.0465,-0.0472,-0.0478,-0.0535,-0.0511,-0.0513,-0.0515,-0.0588,-0.0588,-0.0589,0,0,0,0,0,0,-0.0255,-0.0261,-0.0325,-0.0298,-0.0306,-0.0339,-0.0358,-0.0364,-0.0387,-0.0419,-0.0429,-0.0407,-0.0466,-0.0475,-0.0505,-0.0537,-0.0515,-0.0517,-0.0587,-0.0588,-0.0588,-0.0615,0,0,0,0,0,0,-0.0253,-0.0261,-0.0273,-0.0298,-0.0307,-0.0339,-0.0357,-0.0365,-0.0384,-0.0389,-0.0436,-0.0444,-0.0467,-0.05,-0.0507,-0.054,-0.0519,-0.0587,-0.0587,-0.0588,-0.0614,-0.0616,-0.0619,0,0,0,0,0,-0.025,-0.0262,-0.0274,-0.028,-0.0322,-0.0339,-0.0344,-0.0371,-0.0384,-0.0394,-0.0423,-0.0443,-0.051,-0.0503,-0.0511,-0.0545,-0.0586,-0.0587,-0.0588,-0.0612,-0.0616,-0.0619,0,0,0,0,0,0,-0.0233,-0.0269,-0.0282,-0.0305,-0.0322,-0.0347,-0.0357,-0.0373,-0.0404,-0.0413,-0.0444,-0.0454,-0.0493,-0.0506,-0.0497,-0.0566,-0.0553,-0.0555,-0.0569,-0.0572,-0.0575,-0.0592,-0.0522,0,0,0,0,0,-0.0233,-0.0256,-0.0282,-0.0298,-0.0308,-0.0333,-0.0344,-0.0363,-0.0388,-0.0403,-0.0434,-0.0468,-0.05,-0.0525,-0.0548,-0.0585,-0.0594,-0.0611,-0.0614,-0.0616,-0.0634,-0.0676,-0.0684,-0.0591,-0.0591,-0.0591,0,0,-0.0229,-0.0251,-0.0264,-0.0296,-0.0313,-0.0329,-0.0343,-0.0362,-0.0382,-0.0407,-0.0446,-0.0474,-0.0507,-0.055,-0.057,-0.057,-0.0639,-0.0617,-0.0619,-0.0636,-0.0678,-0.0687,-0.0695,-0.0592,-0.0592,-0.0592,0,0,-0.0229,-0.0254,-0.0273,-0.0287,-0.0312,-0.0328,-0.0334,-0.0365,-0.0389,-0.042,-0.0448,-0.0495,-0.0533,-0.0578,-0.0602,-0.0631,-0.0644,-0.0636,-0.0677,-0.0717,-0.0726,-0.0734,-0.0725,-0.0732,-0.0646,-0.0646,-0.0646,0,-0.0224,-0.0254,-0.0277,-0.0294,-0.0305,-0.0328,-0.0344,-0.0367,-0.0405,-0.0429,-0.0434,-0.0519,-0.0553,-0.0622,-0.0643,-0.0642,-0.0647,-0.0665,-0.0723,-0.0731,-0.0738,-0.0728,-0.0735,-0.0648,-0.0648,-0.0647,-0.0647,0,-0.0238,-0.026,-0.0267,-0.0302,-0.0316,-0.0331,-0.036,-0.0385,-0.0412,-0.0441,-0.0505,-0.0554,-0.0612,-0.0632,-0.0656,-0.0733,-0.071,-0.0714,-0.0718,-0.075,-0.0735,-0.0742,-0.065,-0.0649,-0.0649,-0.0648,0,0,-0.0248,-0.0273,-0.028,-0.0292,-0.0323,-0.0336,-0.0368,-0.0408,-0.0433,-0.0487,-0.053,-0.0618,-0.0654,-0.0685,-0.0723,-0.0778,-0.0833,-0.0781,-0.0782,-0.0777,-0.0891,-0.082,-0.082,-0.0852,-0.0854,-0.0856,-0.0847,0,-0.0258,-0.0279,-0.0294,-0.0317,-0.0333,-0.0356,-0.0376,-0.0416,-0.0453,-0.0497,-0.0572,-0.0621,-0.0669,-0.0704,-0.0772,-0.0813,-0.0859,-0.0833,-0.0857,-0.0858,-0.0797,-0.083,-0.0863,-0.0853,-0.0854,-0.0855,-0.0856,0,-0.0293,-0.0292,-0.0314,-0.0326,-0.0335,-0.0352,-0.0394,-0.0415,-0.0477,-0.0503,-0.0582,-0.0626,-0.0725,-0.0748,-0.0861,-0.0841,-0.0882,-0.091,-0.091,-0.0848,-0.0802,-0.0823,-0.0869,-0.0868,-0.0867,-0.0866,-0.0866,0,-0.0312,-0.0322,-0.0336,-0.0342,-0.0353,-0.0373,-0.0384,-0.0431,-0.0439,-0.0518,-0.0527,-0.0644,-0.0684,-0.0778,-0.0851,-0.0864,-0.0941,-0.0953,-0.0921,-0.0914,-0.0968,-0.096,-0.1038,-0.1038,-0.1038,-0.1038,-0.1038,0,-0.0337,-0.0347,-0.0346,-0.0354,-0.0348,-0.0376,-0.0389,-0.0411,-0.0444,-0.0439,-0.0538,-0.0555,-0.07,-0.0756,-0.0839,-0.0888,-0.0929,-0.0937,-0.0923,-0.0971,-0.0965,-0.0971,-0.0963,-0.1037,-0.1038,-0.1038,-0.1038,0,-0.035,-0.0367,-0.0365,-0.0364,-0.0362,-0.036,-0.035,-0.0351,-0.0392,-0.039,-0.0409,-0.0491,-0.0564,-0.0673,-0.0794,-0.0838,-0.0908,-0.0913,-0.092,-0.0903,-0.0854,-0.0848,-0.0886,-0.0884,-0.0882,-0.088,-0.0879,0,-0.0347,-0.0358,-0.0344,-0.0325,-0.0321,-0.0314,-0.0296,-0.0323,-0.0312,-0.0336,-0.0322,-0.0397,-0.0456,-0.054,-0.069,-0.0814,-0.0839,-0.0856,-0.0915,-0.0865,-0.0847,-0.0843,-0.084,-0.0876,-0.0875,-0.0875,-0.0874,0,-0.0309,-0.0321,-0.0301,-0.0264,-0.0249,-0.0214,-0.0198,-0.0177,-0.0196,-0.0232,-0.0212,-0.0285,-0.0352,-0.0485,-0.0573,-0.0677,-0.0843,-0.0837,-0.0843,-0.0899,-0.0853,-0.0836,-0.0835,-0.0868,-0.0869,-0.0869,-0.087,0,-0.0256,-0.0233,-0.0223,-0.0184,-0.0155,-0.0118,-0.0118,-0.0088,-0.0083,-0.0108,-0.0099,-0.0199,-0.0278,-0.0411,-0.0501,-0.0588,-0.0631,-0.0657,-0.0673,-0.0682,-0.0642,-0.0555,-0.0474,0,0,0,0,0,-0.0197,-0.0181,-0.0136,-0.0105,-0.0072,-0.0064,-0.0043,-0.0052,-0.007,-0.0022,-0.0054,-0.0111,-0.024,-0.0323,-0.0394,-0.0506,-0.0674,-0.0593,-0.0717,-0.0831,-0.0839,-0.0823,0,0,0,0,0,0,-0.0163,-0.0131,-0.0122,-0.0045,-0.0008,0.0024,0.0037,0.0025,0.0045,0.0019,-0.0049,-0.0104,-0.0246,-0.0184,-0.0383,-0.0421,-0.0501,-0.0676,-0.0677,-0.0827,-0.0834,-0.084,-0.0827,0,0,0,0,0]}]]